FW5198 Weather Reports


Display with metric or nautical units.
time (UTC)temp
F
wind
direction
speed
MPH
gust
MPH
rain 1hr
in
rain 24hr
in
rain mn
in
humidity
%
barometer
mb
20260905021556 81 0 0.0 2.0 0.00 0.00 0.00 85 1015.6
20260905020048 81 0 0.0 1.0 0.00 0.00 0.00 86 1015.6
20260905014547 81 0 0.0 1.0 0.00 0.00 0.00 85 1015.4
20260905013050 82 0 0.0 1.0 0.00 0.00 0.00 83 1015.3
20260905011549 83 47 1.0 2.0 0.00 0.00 0.00 82 1015.3
20260905010046 84 0 0.0 1.0 0.00 0.00 0.00 80 1015.2
20260905004549 85 49 0.0 1.0 0.00 0.00 0.00 79 1015.0
20260905003052 87 0 0.0 1.0 0.00 0.00 0.00 74 1014.9
20260905001555 88 0 0.0 2.0 0.00 0.00 0.00 71 1014.7
20260904234547 92 49 1.0 9.0 0.00 0.00 0.00 61 1014.9
20260904233054 93 0 0.0 1.0 0.00 0.00 0.00 65 1014.6
20260904231557 95 0 0.0 1.0 0.00 0.00 0.00 57 1014.4
20260904230049 97 0 0.0 1.0 0.00 0.00 0.00 55 1014.3
20260904224554 97 110 1.0 3.0 0.00 0.00 0.00 53 1014.3
20260904223101 97 0 0.0 3.0 0.00 0.00 0.00 55 1014.3
20260904221558 96 104 0.0 2.0 0.00 0.00 0.00 55 1014.2
20260904220053 97 101 3.0 5.0 0.00 0.00 0.00 55 1014.3
20260904214548 97 75 1.0 2.0 0.00 0.00 0.00 53 1014.5
20260904213054 97 105 0.0 4.0 0.00 0.00 0.00 54 1014.5
20260904211549 98 110 0.0 4.0 0.00 0.00 0.00 53 1014.5
20260904210059 98 0 1.0 4.0 0.00 0.00 0.00 52 1014.5
20260904204558 97 127 2.0 7.0 0.00 0.00 0.00 54 1014.9
20260904203100 97 37 2.0 5.0 0.00 0.00 0.00 53 1015.1
20260904201547 97 73 2.0 5.0 0.00 0.00 0.00 54 1015.3
20260904200046 97 32 2.0 6.0 0.00 0.00 0.00 55 1015.5
20260904194553 96 53 2.0 7.0 0.00 0.00 0.00 56 1015.6
20260904193103 95 0 0.0 2.0 0.00 0.00 0.00 58 1015.9
20260904191553 96 77 2.0 5.0 0.00 0.00 0.00 57 1016.1
20260904190054 97 32 0.0 3.0 0.00 0.00 0.00 54 1016.4
20260904184552 95 0 0.0 5.0 0.00 0.00 0.00 57 1016.5
20260904183050 95 0 0.0 1.0 0.00 0.00 0.00 58 1016.6
20260904181546 95 0 0.0 1.0 0.00 0.00 0.00 57 1016.9
20260904174553 97 68 2.0 5.0 0.00 0.00 0.00 53 1017.2
20260904173055 95 91 1.0 6.0 0.00 0.00 0.00 57 1017.3
20260904171546 95 34 3.0 7.0 0.00 0.00 0.00 56 1017.4
20260904170047 95 63 1.0 6.0 0.00 0.00 0.00 56 1017.4
20260904164552 95 51 2.0 7.0 0.00 0.00 0.00 57 1017.5
20260904163051 94 25 4.0 8.0 0.00 0.00 0.00 58 1017.8
20260904161557 96 86 1.0 5.0 0.00 0.00 0.00 57 1017.9
20260904160100 93 0 2.0 5.0 0.00 0.00 0.00 59 1017.8
20260904154552 93 42 2.0 5.0 0.00 0.00 0.00 60 1017.9
20260904153047 94 33 0.0 4.0 0.00 0.00 0.00 60 1017.8
20260904151549 92 0 0.0 5.0 0.00 0.00 0.00 65 1017.8
20260904150054 91 39 0.0 4.0 0.00 0.00 0.00 66 1017.8
20260904144605 90 60 0.0 3.0 0.00 0.00 0.00 71 1017.6
20260904143056 88 47 2.0 4.0 0.00 0.00 0.00 73 1017.6
20260904141557 87 30 0.0 2.0 0.00 0.00 0.00 76 1017.5
20260904140049 85 42 1.0 3.0 0.00 0.00 0.00 80 1017.6
20260904134548 84 0 1.0 2.0 0.00 0.00 0.00 82 1017.5
20260904133057 82 0 0.0 1.0 0.00 0.00 0.00 84 1017.4
20260904131555 80 0 0.0 1.0 0.00 0.00 0.00 87 1017.3
20260904130052 78 49 0.0 1.0 0.00 0.00 0.00 89 1017.2
20260904124549 76 0 0.0 0.0 0.00 0.00 0.00 93 1017.2
20260904123046 75 0 0.0 0.0 0.00 0.00 0.00 94 1017.1
20260904121545 74 0 0.0 0.0 0.00 0.00 0.00 95 1017.0
20260904120049 74 0 0.0 0.0 0.00 0.00 0.00 96 1016.8
20260904114550 73 0 0.0 1.0 0.00 0.00 0.00 96 1016.6
20260904113049 73 0 0.0 1.0 0.00 0.00 0.00 96 1016.5
20260904111546 73 0 0.0 0.0 0.00 0.00 0.00 96 1016.3
20260904110050 73 0 0.0 0.0 0.00 0.00 0.00 96 1016.2
20260904104546 73 0 0.0 1.0 0.00 0.00 0.00 96 1016.2
20260904103045 74 0 0.0 1.0 0.00 0.00 0.00 95 1016.2
20260904101550 74 49 0.0 1.0 0.00 0.00 0.00 95 1016.2
20260904100045 74 0 0.0 1.0 0.00 0.00 0.00 95 1016.1
20260904094547 74 0 0.0 0.0 0.00 0.00 0.00 95 1016.0
20260904093048 74 0 0.0 1.0 0.00 0.00 0.00 94 1016.0
20260904091556 75 0 0.0 1.0 0.00 0.00 0.00 95 1015.9
20260904090048 75 0 0.0 1.0 0.00 0.00 0.00 94 1015.8
20260904084547 75 0 0.0 1.0 0.00 0.00 0.00 94 1015.7
20260904083049 75 0 0.0 1.0 0.00 0.00 0.00 94 1015.7
20260904081546 75 0 0.0 0.0 0.00 0.00 0.00 93 1015.7
20260904080047 75 0 0.0 1.0 0.00 0.00 0.00 93 1015.7
20260904074601 75 0 0.0 1.0 0.00 0.00 0.00 94 1015.6
20260904073050 75 0 0.0 1.0 0.00 0.00 0.00 94 1015.8
20260904071610 76 0 0.0 1.0 0.00 0.00 0.00 94 1015.8
20260904070051 76 0 0.0 0.0 0.00 0.00 0.00 94 1015.7
20260904064604 76 0 0.0 1.0 0.00 0.00 0.00 93 1015.7
20260904063053 76 0 0.0 1.0 0.00 0.00 0.00 93 1015.9
20260904061545 77 0 0.0 1.0 0.00 0.00 0.00 93 1015.9
20260904060047 77 0 0.0 1.0 0.00 0.00 0.00 93 1015.9
20260904054555 77 0 0.0 1.0 0.00 0.00 0.00 93 1015.9
20260904053059 77 0 0.0 1.0 0.00 0.00 0.00 93 1015.9
20260904051548 77 0 0.0 1.0 0.00 0.00 0.00 93 1016.0
20260904050058 77 0 0.0 1.0 0.00 0.00 0.00 92 1016.0
20260904044558 78 0 0.0 1.0 0.00 0.00 0.00 93 1016.2
20260904043049 78 0 0.0 1.0 0.00 0.00 0.00 93 1016.1
20260904041547 78 49 0.0 1.0 0.00 0.00 0.00 93 1016.2
20260904040049 79 0 0.0 1.0 0.00 0.00 0.00 92 1016.3
20260904034547 79 0 0.0 1.0 0.00 0.00 0.00 92 1016.4
20260904033057 79 0 0.0 1.0 0.00 0.00 0.00 91 1016.6
20260904031601 79 0 0.0 1.0 0.00 0.00 0.00 91 1016.5
20260904030046 80 0 0.0 1.0 0.00 0.00 0.00 91 1016.6
20260904024546 80 0 0.0 1.0 0.00 0.00 0.00 90 1016.6
20260904023053 80 0 0.0 1.0 0.00 0.00 0.00 90 1016.5